Weather History for KFOE - June, 2013

Change the Weather History Date:

Saturday, June 15, 2013

  Actual Average Record
Temperature  
Mean Temperature 78 °F -  
Max Temperature 88 °F 84 °F 102 °F (1953)
Min Temperature 68 °F 62 °F 51 °F (1955)
Cooling Degree Days 14    
Growing Degree Days 28 (Base 50)    
Moisture  
Dew Point 68 °F    
Average Humidity 78    
Maximum Humidity 90    
Minimum Humidity 48    
Precipitation  
Precipitation 0.64 in - - ()
Sea Level Pressure  
Sea Level Pressure 29.92 in    
Wind  
Wind Speed 9 mph (South)    
Max Wind Speed 15 mph    
Max Gust Speed 29 mph    
Visibility 9 miles    
Events Fog , Rain , Thunderstorm    
Averages and records for this station are not official NWS values.
T = Trace of Precipitation, MM = Missing Value Source: NWS Daily Summary

Daily Weather History Graph

Daily Weather History Graph

Search for Another Location

Airport or City:

Trip Planner

Search our weather history database for the weather conditions in past years. The results will help you decide how hot, cold, wet, or windy it might be!

Date:

Astronomy

Jun. 15, 2013 Rise Set
Actual Time 5:56 AM CDT 8:49 PM CDT
Civil Twilight 5:24 AM CDT 9:22 PM CDT
Nautical Twilight 4:44 AM CDT 10:02 PM CDT
Astronomical Twilight 3:57 AM CDT 10:49 PM CDT
Moon 12:29 PM CDT (6/15) 12:28 AM CDT (6/15)
Length of Visible Light 15h 57m
Length of Day
14h 53m
Waxing Crescent, 40% of the Moon is Illuminated
Jun 15
Waxing Crescent
Jun 16
First Quarter
Jun 23
Full
Jun 29
Last Quarter
Jul 8
New

Hourly Weather History & Observations

Time (CDT) Temp. Heat Index Dew Point Humidity Pressure Visibility Wind Dir Wind Speed Gust Speed Precip Events Conditions
12:53 AM 81.0 °F 84.9 °F 71.1 °F 72% 29.87 in 10.0 mi South 12.7 mph 21.9 mph N/A   Clear
1:53 AM 80.1 °F 83.8 °F 72.0 °F 76% 29.86 in 10.0 mi South 13.8 mph - N/A   Clear
2:53 AM 78.1 °F - 72.0 °F 81% 29.88 in 10.0 mi South 4.6 mph - N/A   Clear
3:53 AM 77.0 °F - 71.1 °F 82% 29.88 in 10.0 mi South 5.8 mph - N/A   Clear
4:53 AM 75.9 °F - 71.1 °F 85% 29.89 in 10.0 mi SSE 5.8 mph - N/A   Clear
5:53 AM 75.9 °F - 71.1 °F 85% 29.89 in 10.0 mi SSE 6.9 mph - N/A   Clear
6:53 AM 77.0 °F - 72.0 °F 84% 29.91 in 10.0 mi SSE 5.8 mph - N/A   Clear
7:53 AM 79.0 °F - 72.0 °F 79% 29.94 in 10.0 mi Calm Calm - N/A   Clear
8:53 AM 80.1 °F 83.8 °F 72.0 °F 76% 29.93 in 10.0 mi South 10.4 mph - N/A   Clear
9:53 AM 82.9 °F 87.5 °F 71.1 °F 67% 29.93 in 10.0 mi South 10.4 mph - N/A   Clear
10:53 AM 82.9 °F 87.5 °F 71.1 °F 67% 29.92 in 10.0 mi SSW 6.9 mph - N/A   Clear
11:53 AM 82.9 °F 85.8 °F 68.0 °F 60% 29.95 in 10.0 mi SSW 9.2 mph - N/A   Clear
12:53 PM 84.9 °F 87.6 °F 66.9 °F 55% 29.93 in 10.0 mi South 6.9 mph - N/A   Partly Cloudy
1:53 PM 88.0 °F 90.3 °F 66.0 °F 48% 29.90 in 10.0 mi West 5.8 mph - N/A   Partly Cloudy
2:53 PM 86.0 °F 88.8 °F 66.9 °F 53% 29.89 in 10.0 mi WNW 6.9 mph - N/A   Scattered Clouds
3:53 PM 73.0 °F - 66.0 °F 79% 29.91 in 10.0 mi South 12.7 mph 28.8 mph 0.00 in Rain Light Rain
4:28 PM 71.6 °F - 66.2 °F 83% 29.98 in 1.5 mi WSW 11.5 mph 19.6 mph 0.16 in Rain Heavy Rain
4:34 PM 69.8 °F - 66.2 °F 88% 29.96 in 0.2 mi Variable 5.8 mph 19.6 mph 0.50 in Fog , Rain Heavy Rain
4:45 PM 71.6 °F - 66.2 °F 83% 29.98 in 1.0 mi SSE 11.5 mph 20.7 mph 0.64 in Rain Light Rain
4:48 PM 71.6 °F - 66.2 °F 83% 29.98 in 4.0 mi SSE 11.5 mph 20.7 mph 0.64 in Rain Light Rain
4:53 PM 71.1 °F - 66.9 °F 87% 29.94 in 10.0 mi South 15.0 mph 21.9 mph 0.64 in Rain Light Rain
5:04 PM 71.6 °F - 66.2 °F 83% 29.96 in 10.0 mi SSE 13.8 mph 20.7 mph N/A   Overcast
5:31 PM 71.6 °F - 66.2 °F 83% 29.94 in 10.0 mi South 12.7 mph 19.6 mph 0.00 in   Scattered Clouds
5:53 PM 73.9 °F - 66.9 °F 79% 29.89 in 10.0 mi SSE 12.7 mph - 0.00 in   Clear
6:53 PM 73.9 °F - 66.0 °F 76% 29.87 in 10.0 mi SSE 11.5 mph - N/A   Partly Cloudy
7:53 PM 73.0 °F - 66.0 °F 79% 29.87 in 10.0 mi SSE 5.8 mph - N/A   Scattered Clouds
8:13 PM 73.4 °F - 66.2 °F 78% 29.93 in 10.0 mi Calm Calm - N/A Thunderstorm Mostly Cloudy
8:28 PM 71.6 °F - 66.2 °F 83% 29.90 in 10.0 mi SSE 5.8 mph - N/A   Mostly Cloudy
8:53 PM 71.1 °F - 66.0 °F 84% 29.86 in 10.0 mi SSE 13.8 mph - 0.00 in   Clear
9:53 PM 69.1 °F - 64.9 °F 87% 29.89 in 10.0 mi SSE 10.4 mph - N/A   Scattered Clouds
10:53 PM 69.1 °F - 64.9 °F 87% 29.92 in 10.0 mi SSE 5.8 mph - N/A   Scattered Clouds
11:53 PM 68.0 °F - 64.9 °F 90% 29.93 in 10.0 mi East 4.6 mph - N/A   Scattered Clouds